Clark Regional (JVY)

 

Airport Diagram
No Airport Diagram Available
Current Weather/Forecast (VFR Conditions)
METAR KJVY 191735Z AUTO 26007KT 220V280 10SM CLR 18/04 A2993 RMK AO2 T01800042 TSNO
TAF

Airport Information

All Charts
General
Chart Name View
TAKEOFF MINIMUMS
ALTERNATE MINIMUMS
TAKEOFF MINIMUMS
ALTERNATE MINIMUMS

Arrivals
Chart Name Download
CHERI FOUR
DARBY SEVEN
REDSTONE SIX
CHERI FOUR
DARBY SEVEN
REDSTONE SIX

Approaches
Chart Name Download
ILS OR LOC RWY 18
RNAV (GPS) RWY 18
NDB RWY 18
ILS OR LOC RWY 18
RNAV (GPS) RWY 18
NDB RWY 18


Airport Statistics
Departures Arrivals Local
All Collected Stats since June 2016: 34 23 5
2021 Stats: 4 4 3
April Stats: 0 1 1

Inbound Traffic (Arrivals) - 0

No inbound traffic.


Outbound Traffic (Departures) - 0

No outbound traffic.


Local Traffic (Pattern) - 0

No local traffic.